ARCCUBE 1 (RS25S) (57205 NORAD) Tracking and Keplerian Element Data

This shows tracking and keplerian element data for the satellite.

Feedback or suggestion? Click here.




ElementValue
Catalog57205
NameARCCUBE 1 (RS25S)
Epoch Orbit7145
Epoch Day286.8576759
Epoch Year2024
RAAN341.032
Inclination97.5931
Eccentricity0.0010441
Argument of Perigee69.3216
Mean Anonmoly290.9138
Mean Motion15.21326729
Decay Rate0.00037706
L11 57205U 23091AR 24286.85767590 .00037706 00000+0 16779-2 0 9997
L22 57205 97.5931 341.0320 0010441 69.3216 290.9138 15.21326729 71452



Live tracking and technical data element details for ARCCUBE 1 (RS25S) (NORAD 57205). ARCCUBE 1 (RS25S) can be tracked NOW for your location showing map with azimuth and elevation plus other details from your city location.







IsCatalogInMostPopularTable: catalog: 57205, numindb: 31
Update: records affected: 1



GetName: 57205 ARCCUBE 1 (RS25S)

Hit Count: updated at: Thu, 23 Jan 2025 16:54:50 GMT